M0SWV Weather Reports


time (UTC)temp
C
wind
direction
speed
KPH
gust
KPH
rain 1hr
cm
rain 24hr
cm
rain mn
cm
humidity
%
barometer
mb
20260508034538 7 0 0.0 0.0 0.00 0.00 0.00 94 1016.3
20260508033043 8 0 0.0 0.0 0.00 0.00 0.00 94 1016.3
20260508031530 8 0 0.0 0.0 0.00 0.00 0.00 94 1016.3
20260508030030 8 0 0.0 0.0 0.00 0.00 0.00 94 1016.5
20260508024529 8 0 0.0 0.0 0.00 0.00 0.00 94 1016.5
20260508023037 8 0 0.0 0.0 0.00 0.00 0.00 94 1016.4
20260508021535 7 0 0.0 0.0 0.00 0.00 0.00 94 1016.5
20260508020036 7 0 0.0 0.0 0.00 0.00 0.00 93 1016.4
20260508014530 7 0 0.0 0.0 0.00 0.00 0.00 93 1016.6
20260508013029 7 0 0.0 0.0 0.00 0.00 0.00 92 1016.5
20260508011541 8 0 0.0 0.0 0.00 0.00 0.00 93 1016.5
20260508010036 8 0 0.0 0.0 0.00 0.00 0.00 93 1016.6
20260508004535 8 0 0.0 0.0 0.00 0.00 0.00 92 1016.6
20260508003034 8 0 0.0 0.0 0.00 0.00 0.00 92 1016.7
20260508001544 8 0 0.0 0.0 0.00 0.00 0.00 92 1016.6
20260508000031 8 0 0.0 0.0 0.00 0.00 0.00 92 1016.6
20260507234531 8 0 0.0 0.0 0.00 0.00 0.00 92 1016.6
20260507233034 8 0 0.0 0.0 0.00 0.00 0.00 92 1016.8
20260507231532 8 0 0.0 0.0 0.00 0.00 0.00 91 1016.8
20260507230036 8 0 0.0 0.0 0.00 0.00 0.00 91 1016.8
20260507224536 8 0 0.0 0.0 0.00 0.00 0.00 90 1016.8
20260507223033 8 0 0.0 0.0 0.00 0.00 0.00 90 1016.7
20260507221533 8 0 0.0 0.0 0.00 0.00 0.00 89 1016.8
20260507220031 9 0 0.0 0.0 0.00 0.00 0.00 88 1016.7
20260507214530 9 0 0.0 0.0 0.00 0.00 0.00 87 1016.7
20260507213039 9 0 0.0 0.0 0.00 0.00 0.00 87 1016.8
20260507211545 10 0 0.0 0.0 0.00 0.00 0.00 85 1016.8
20260507210033 10 0 0.0 0.0 0.00 0.00 0.00 82 1016.6
20260507204530 10 0 0.0 0.0 0.00 0.00 0.00 82 1016.5
20260507203031 10 0 0.0 0.0 0.00 0.00 0.00 83 1016.4
20260507201542 10 0 0.0 0.0 0.00 0.00 0.00 81 1016.3
20260507200037 10 0 0.0 0.0 0.00 0.00 0.00 81 1016.2
20260507194533 10 0 0.0 0.0 0.00 0.00 0.00 80 1016.0
20260507193039 10 0 0.0 0.0 0.00 0.00 0.00 79 1015.9
20260507191531 10 0 0.0 1.6 0.00 0.00 0.00 79 1015.9
20260507190029 10 0 0.0 1.6 0.00 0.00 0.00 81 1015.9
20260507184533 10 0 0.0 4.8 0.00 0.00 0.00 81 1015.9
20260507183033 11 0 0.0 1.6 0.00 0.00 0.00 81 1015.9
20260507181529 11 0 0.0 4.8 0.00 0.00 0.00 79 1015.8
20260507180044 11 0 0.0 1.6 0.00 0.00 0.00 77 1015.8
20260507174535 11 0 0.0 3.2 0.00 0.00 0.00 78 1015.8
20260507173041 11 238 3.2 9.7 0.00 0.00 0.00 78 1015.8
20260507171533 11 265 3.2 8.0 0.00 0.00 0.00 77 1015.7
20260507170044 11 288 3.2 12.9 0.00 0.00 0.00 78 1015.9
20260507164530 11 272 3.2 11.3 0.00 0.00 0.00 78 1015.9
20260507163031 12 266 3.2 11.3 0.00 0.00 0.00 78 1015.8
20260507161530 12 0 3.2 11.3 0.00 0.00 0.00 77 1015.6
20260507160032 12 257 0.0 17.7 0.00 0.00 0.00 75 1015.7
20260507154530 12 249 3.2 16.1 0.00 0.00 0.00 72 1015.7
20260507153031 12 229 6.4 16.1 0.00 0.00 0.00 73 1015.6
20260507151529 12 0 4.8 20.9 0.00 0.00 0.00 73 1015.7
20260507150030 13 242 3.2 17.7 0.00 0.00 0.00 72 1015.6
20260507144530 13 223 9.7 17.7 0.00 0.00 0.00 70 1015.7
20260507143030 13 172 6.4 14.5 0.00 0.00 0.00 68 1015.8
20260507141531 14 0 4.8 16.1 0.00 0.00 0.00 68 1015.8
20260507140035 14 82 6.4 16.1 0.00 0.00 0.00 67 1016.0
20260507134530 13 158 4.8 16.1 0.00 0.00 0.00 69 1016.1
20260507133037 14 153 4.8 12.9 0.00 0.00 0.00 65 1016.1
20260507131532 14 124 4.8 14.5 0.00 0.00 0.00 68 1016.1
20260507130036 14 92 8.0 19.3 0.00 0.00 0.00 65 1016.1
20260507124529 14 164 9.7 17.7 0.00 0.00 0.00 67 1016.1
20260507123034 13 195 9.7 19.3 0.00 0.00 0.00 66 1016.2
20260507121533 13 137 4.8 11.3 0.00 0.00 0.00 71 1016.4
20260507120033 13 250 11.3 20.9 0.00 0.00 0.00 70 1016.4
20260507114531 12 205 4.8 14.5 0.00 0.00 0.00 73 1016.4
20260507113029 12 232 6.4 14.5 0.00 0.00 0.00 71 1016.6
20260507111530 13 117 6.4 12.9 0.00 0.00 0.00 72 1016.4
20260507110030 13 246 3.2 11.3 0.00 0.00 0.00 75 1016.5
20260507104532 13 144 4.8 11.3 0.00 0.00 0.00 74 1016.7
20260507103036 12 189 4.8 11.3 0.00 0.00 0.00 77 1016.6
20260507101530 12 0 0.0 4.8 0.00 0.00 0.00 78 1016.8
20260507100031 11 254 1.6 8.0 0.00 0.00 0.00 82 1017.0
20260507094533 10 101 0.0 6.4 0.00 0.00 0.00 84 1017.0
20260507093032 9 119 1.6 6.4 0.00 0.00 0.00 85 1017.0
20260507091538 8 219 1.6 9.7 0.00 0.00 0.00 86 1017.0
20260507090034 8 100 1.6 4.8 0.00 0.00 0.00 87 1017.1
20260507084540 8 0 0.0 4.8 0.00 0.00 0.00 87 1017.1
20260507083030 7 0 0.0 4.8 0.00 0.00 0.00 88 1017.1
20260507081530 7 114 1.6 4.8 0.00 0.00 0.00 88 1017.1
20260507080030 7 0 0.0 0.0 0.00 0.00 0.00 90 1017.2
20260507074533 7 0 0.0 0.0 0.00 0.00 0.00 91 1017.1
20260507073030 6 0 0.0 0.0 0.00 0.00 0.00 91 1017.0
20260507071533 6 0 0.0 0.0 0.00 0.00 0.00 92 1017.0
20260507070039 6 0 0.0 0.0 0.00 0.00 0.00 92 1016.9
20260507064529 6 0 0.0 0.0 0.00 0.00 0.00 92 1016.7
20260507063033 6 0 0.0 1.6 0.00 0.00 0.00 92 1016.8
20260507061533 6 98 1.6 4.8 0.00 0.00 0.00 92 1016.7
20260507060033 6 0 0.0 0.0 0.00 0.00 0.00 92 1016.6
20260507054532 6 0 0.0 0.0 0.00 0.00 0.00 92 1016.6
20260507053033 6 0 0.0 3.2 0.00 0.00 0.00 92 1016.5
20260507051532 6 0 0.0 0.0 0.00 0.00 0.00 92 1016.5
20260507050042 5 0 0.0 1.6 0.00 0.00 0.00 92 1016.5
20260507044534 5 0 0.0 1.6 0.00 0.00 0.00 92 1016.4
20260507043030 6 0 0.0 1.6 0.00 0.00 0.00 91 1016.4
20260507041532 6 0 0.0 3.2 0.00 0.00 0.00 91 1016.2
20260507040031 6 92 0.0 1.6 0.00 0.00 0.00 91 1016.3